To NAV CANADA Home Page Login to a new session Search on AWWS site Feedback and Comments Disclaimer Vers la page française équivalente Tips FAQ What's new on the site To the Forecasts and Observations / NOTAM section To "File a Flight Plan" website Publications and other links Update of the User's profile FIC Telephone Numbers My Weather Data Folder Route Weather Data Regional Weather Data Local Weather Data To the Forecasts and Observations / NOTAM section
Request Generated 05/30/2015 at 08:04:45 UTC . Weather information available at that time is displayed.

METAR/TAF

FARO/YT    

LWIS CZFA 300800Z AUTO 00000KT 14/06 A3001=
LWIS CZFA 300700Z AUTO 28005KT 15/06 A3002=
LWIS CZFA 300600Z AUTO 26010KT 17/06 A3001=

*** REMARK        : Forecast period has ended; this was the last TAF issued
*** REMARQUE : La période de prévision est échue; ceci était le dernier TAF qui a été émis
TAF CZFA 291738Z 2918/2922 VRB03KT P6SM FEW060 SCT100
FM292100 26005KT P6SM SCT060 BKN100 PROB30 2921/2922 VRB15G25KT
5SM TSRA BKN050CB
RMK NXT FCST WILL BE ISSUED AT 301545Z=
Your time UTC time
Weather data provided by Environment Canada and NAV CANADA